owner,sensor,date,latitude,longitude,air_temperature,qcFlag 
COMPS,ioos:station:USF.COMPS:ANC:1,2010-12-01T00:00:00Z,28.1930,-82.7890,23.1,1111122 
COMPS,ioos:station:USF.COMPS:ANC:1,2010-12-01T00:06:00Z,28.1930,-82.7890,22.84,1111122 
COMPS,ioos:station:USF.COMPS:ANC:1,2010-12-01T00:12:00Z,28.1930,-82.7890,22.71,1111122 
COMPS,ioos:station:USF.COMPS:ANC:1,2010-12-01T00:18:00Z,28.1930,-82.7890,22.69,1111122 
COMPS,ioos:station:USF.COMPS:ANC:1,2010-12-01T00:24:00Z,28.1930,-82.7890,22.76,1111122 
COMPS,ioos:station:USF.COMPS:ANC:1,2010-12-01T00:30:00Z,28.1930,-82.7890,22.52,1111122 
COMPS,ioos:station:USF.COMPS:ANC:1,2010-12-01T00:36:00Z,28.1930,-82.7890,22.43,1111122 
COMPS,ioos:station:USF.COMPS:ANC:1,2010-12-01T00:42:00Z,28.1930,-82.7890,22.53,1111122 
COMPS,ioos:station:USF.COMPS:ANC:1,2010-12-01T00:48:00Z,28.1930,-82.7890,22.7,1111122 
COMPS,ioos:station:USF.COMPS:ANC:1,2010-12-01T00:54:00Z,28.1930,-82.7890,22.79,1111122 
COMPS,ioos:station:USF.COMPS:ANC:1,2010-12-01T01:00:00Z,28.1930,-82.7890,22.8,1111122 
COMPS,ioos:station:USF.COMPS:ANC:1,2010-12-01T01:06:00Z,28.1930,-82.7890,22.98,1111122 
COMPS,ioos:station:USF.COMPS:ANC:1,2010-12-01T01:12:00Z,28.1930,-82.7890,23.09,1111122 
COMPS,ioos:station:USF.COMPS:ANC:1,2010-12-01T01:18:00Z,28.1930,-82.7890,23.1,1111122 
COMPS,ioos:station:USF.COMPS:ANC:1,2010-12-01T01:24:00Z,28.1930,-82.7890,23.27,1111122 
COMPS,ioos:station:USF.COMPS:ANC:1,2010-12-01T01:30:00Z,28.1930,-82.7890,23.23,1111122 
COMPS,ioos:station:USF.COMPS:ANC:1,2010-12-01T01:36:00Z,28.1930,-82.7890,23.24,1111122 
COMPS,ioos:station:USF.COMPS:ANC:1,2010-12-01T01:42:00Z,28.1930,-82.7890,23.24,1111122 
COMPS,ioos:station:USF.COMPS:ANC:1,2010-12-01T01:48:00Z,28.1930,-82.7890,23.35,1111122 
COMPS,ioos:station:USF.COMPS:ANC:1,2010-12-01T01:54:00Z,28.1930,-82.7890,23.38,1111122 
COMPS,ioos:station:USF.COMPS:ANC:1,2010-12-01T02:00:00Z,28.1930,-82.7890,23.4,1111122 
COMPS,ioos:station:USF.COMPS:ANC:1,2010-12-01T02:06:00Z,28.1930,-82.7890,23.46,1111122 
COMPS,ioos:station:USF.COMPS:ANC:1,2010-12-01T02:12:00Z,28.1930,-82.7890,23.39,1111122 
COMPS,ioos:station:USF.COMPS:ANC:1,2010-12-01T02:18:00Z,28.1930,-82.7890,23.43,1111122 
COMPS,ioos:station:USF.COMPS:ANC:1,2010-12-01T02:24:00Z,28.1930,-82.7890,23.75,1111122 
COMPS,ioos:station:USF.COMPS:ANC:1,2010-12-01T02:30:00Z,28.1930,-82.7890,23.53,1111122 
COMPS,ioos:station:USF.COMPS:ANC:1,2010-12-01T02:36:00Z,28.1930,-82.7890,23.51,1111122 
COMPS,ioos:station:USF.COMPS:ANC:1,2010-12-01T02:42:00Z,28.1930,-82.7890,23.62,1111122 
COMPS,ioos:station:USF.COMPS:ANC:1,2010-12-01T02:48:00Z,28.1930,-82.7890,23.64,1111122 
COMPS,ioos:station:USF.COMPS:ANC:1,2010-12-01T02:54:00Z,28.1930,-82.7890,23.62,1111122 
COMPS,ioos:station:USF.COMPS:ANC:1,2010-12-01T03:00:00Z,28.1930,-82.7890,23.6,1111122 
COMPS,ioos:station:USF.COMPS:ANC:1,2010-12-01T03:06:00Z,28.1930,-82.7890,23.65,1111122 
COMPS,ioos:station:USF.COMPS:ANC:1,2010-12-01T03:12:00Z,28.1930,-82.7890,23.65,1111122 
COMPS,ioos:station:USF.COMPS:ANC:1,2010-12-01T03:18:00Z,28.1930,-82.7890,23.73,1111122 
COMPS,ioos:station:USF.COMPS:ANC:1,2010-12-01T03:24:00Z,28.1930,-82.7890,23.81,1111122 
COMPS,ioos:station:USF.COMPS:ANC:1,2010-12-01T03:30:00Z,28.1930,-82.7890,23.64,1111122 
COMPS,ioos:station:USF.COMPS:ANC:1,2010-12-01T03:36:00Z,28.1930,-82.7890,23.64,1111122 
COMPS,ioos:station:USF.COMPS:ANC:1,2010-12-01T03:42:00Z,28.1930,-82.7890,23.65,1111122 
COMPS,ioos:station:USF.COMPS:ANC:1,2010-12-01T03:48:00Z,28.1930,-82.7890,23.64,1111122 
COMPS,ioos:station:USF.COMPS:ANC:1,2010-12-01T03:54:00Z,28.1930,-82.7890,23.64,1111122 
COMPS,ioos:station:USF.COMPS:ANC:1,2010-12-01T04:00:00Z,28.1930,-82.7890,23.6,1111122 
COMPS,ioos:station:USF.COMPS:ANC:1,2010-12-01T04:06:00Z,28.1930,-82.7890,23.67,1111122 
COMPS,ioos:station:USF.COMPS:ANC:1,2010-12-01T04:12:00Z,28.1930,-82.7890,23.64,1111122 
COMPS,ioos:station:USF.COMPS:ANC:1,2010-12-01T04:18:00Z,28.1930,-82.7890,23.56,1111122 
COMPS,ioos:station:USF.COMPS:ANC:1,2010-12-01T04:24:00Z,28.1930,-82.7890,23.67,1111122 
COMPS,ioos:station:USF.COMPS:ANC:1,2010-12-01T04:30:00Z,28.1930,-82.7890,23.39,1111122 
COMPS,ioos:station:USF.COMPS:ANC:1,2010-12-01T04:36:00Z,28.1930,-82.7890,23.3,1111122 
COMPS,ioos:station:USF.COMPS:ANC:1,2010-12-01T04:42:00Z,28.1930,-82.7890,23.24,1111122 
COMPS,ioos:station:USF.COMPS:ANC:1,2010-12-01T04:48:00Z,28.1930,-82.7890,23.11,1111122 
COMPS,ioos:station:USF.COMPS:ANC:1,2010-12-01T04:54:00Z,28.1930,-82.7890,23.13,1111122 
COMPS,ioos:station:USF.COMPS:ANC:1,2010-12-01T05:00:00Z,28.1930,-82.7890,23.1,1111122 
COMPS,ioos:station:USF.COMPS:ANC:1,2010-12-01T05:06:00Z,28.1930,-82.7890,23.1,1111122 
COMPS,ioos:station:USF.COMPS:ANC:1,2010-12-01T05:12:00Z,28.1930,-82.7890,23.1,1111122 
COMPS,ioos:station:USF.COMPS:ANC:1,2010-12-01T05:18:00Z,28.1930,-82.7890,23.06,1111122 
COMPS,ioos:station:USF.COMPS:ANC:1,2010-12-01T05:24:00Z,28.1930,-82.7890,23.32,1111122 
COMPS,ioos:station:USF.COMPS:ANC:1,2010-12-01T05:30:00Z,28.1930,-82.7890,22.98,1111122 
COMPS,ioos:station:USF.COMPS:ANC:1,2010-12-01T05:36:00Z,28.1930,-82.7890,22.97,1111122 
COMPS,ioos:station:USF.COMPS:ANC:1,2010-12-01T05:42:00Z,28.1930,-82.7890,22.98,1111122 
COMPS,ioos:station:USF.COMPS:ANC:1,2010-12-01T05:48:00Z,28.1930,-82.7890,23.07,1111122 
COMPS,ioos:station:USF.COMPS:ANC:1,2010-12-01T05:54:00Z,28.1930,-82.7890,23.01,1111122 
COMPS,ioos:station:USF.COMPS:ANC:1,2010-12-01T06:00:00Z,28.1930,-82.7890,23.0,1111122 
COMPS,ioos:station:USF.COMPS:ANC:1,2010-12-01T06:06:00Z,28.1930,-82.7890,22.97,1111122 
COMPS,ioos:station:USF.COMPS:ANC:1,2010-12-01T06:12:00Z,28.1930,-82.7890,22.97,1111122 
COMPS,ioos:station:USF.COMPS:ANC:1,2010-12-01T06:18:00Z,28.1930,-82.7890,22.91,1111122 
COMPS,ioos:station:USF.COMPS:ANC:1,2010-12-01T06:24:00Z,28.1930,-82.7890,23.09,1111122 
COMPS,ioos:station:USF.COMPS:ANC:1,2010-12-01T06:30:00Z,28.1930,-82.7890,22.84,1111122 
COMPS,ioos:station:USF.COMPS:ANC:1,2010-12-01T06:36:00Z,28.1930,-82.7890,22.88,1111122 
COMPS,ioos:station:USF.COMPS:ANC:1,2010-12-01T06:42:00Z,28.1930,-82.7890,22.95,1111122 
COMPS,ioos:station:USF.COMPS:ANC:1,2010-12-01T06:48:00Z,28.1930,-82.7890,22.95,1111122 
COMPS,ioos:station:USF.COMPS:ANC:1,2010-12-01T06:54:00Z,28.1930,-82.7890,22.94,1111122 
COMPS,ioos:station:USF.COMPS:ANC:1,2010-12-01T07:00:00Z,28.1930,-82.7890,22.9,1111122 
COMPS,ioos:station:USF.COMPS:ANC:1,2010-12-01T07:06:00Z,28.1930,-82.7890,22.97,1111122 
COMPS,ioos:station:USF.COMPS:ANC:1,2010-12-01T07:12:00Z,28.1930,-82.7890,22.91,1111122 
COMPS,ioos:station:USF.COMPS:ANC:1,2010-12-01T07:18:00Z,28.1930,-82.7890,22.56,1111122 
COMPS,ioos:station:USF.COMPS:ANC:1,2010-12-01T07:24:00Z,28.1930,-82.7890,19.71,1111122 
COMPS,ioos:station:USF.COMPS:ANC:1,2010-12-01T07:30:00Z,28.1930,-82.7890,19.3,1111122 
COMPS,ioos:station:USF.COMPS:ANC:1,2010-12-01T07:36:00Z,28.1930,-82.7890,19.06,1111122 
COMPS,ioos:station:USF.COMPS:ANC:1,2010-12-01T07:42:00Z,28.1930,-82.7890,18.92,1111122 
COMPS,ioos:station:USF.COMPS:ANC:1,2010-12-01T07:48:00Z,28.1930,-82.7890,18.9,1111122 
COMPS,ioos:station:USF.COMPS:ANC:1,2010-12-01T07:54:00Z,28.1930,-82.7890,18.93,1111122 
COMPS,ioos:station:USF.COMPS:ANC:1,2010-12-01T08:00:00Z,28.1930,-82.7890,18.9,1111122 
COMPS,ioos:station:USF.COMPS:ANC:1,2010-12-01T08:06:00Z,28.1930,-82.7890,18.99,1111122 
COMPS,ioos:station:USF.COMPS:ANC:1,2010-12-01T08:12:00Z,28.1930,-82.7890,19.0,1111122 
COMPS,ioos:station:USF.COMPS:ANC:1,2010-12-01T08:18:00Z,28.1930,-82.7890,19.02,1111122 
COMPS,ioos:station:USF.COMPS:ANC:1,2010-12-01T08:24:00Z,28.1930,-82.7890,19.08,1111122 
COMPS,ioos:station:USF.COMPS:ANC:1,2010-12-01T08:30:00Z,28.1930,-82.7890,18.89,1111122 
COMPS,ioos:station:USF.COMPS:ANC:1,2010-12-01T08:36:00Z,28.1930,-82.7890,18.72,1111122 
COMPS,ioos:station:USF.COMPS:ANC:1,2010-12-01T08:42:00Z,28.1930,-82.7890,18.63,1111122 
COMPS,ioos:station:USF.COMPS:ANC:1,2010-12-01T08:48:00Z,28.1930,-82.7890,18.52,1111122 
COMPS,ioos:station:USF.COMPS:ANC:1,2010-12-01T08:54:00Z,28.1930,-82.7890,18.25,1111122 
COMPS,ioos:station:USF.COMPS:ANC:1,2010-12-01T09:00:00Z,28.1930,-82.7890,18.3,1111122 
COMPS,ioos:station:USF.COMPS:ANC:1,2010-12-01T09:06:00Z,28.1930,-82.7890,18.1,1111122 
COMPS,ioos:station:USF.COMPS:ANC:1,2010-12-01T09:12:00Z,28.1930,-82.7890,17.89,1111122 
COMPS,ioos:station:USF.COMPS:ANC:1,2010-12-01T09:18:00Z,28.1930,-82.7890,17.74,1111122 
COMPS,ioos:station:USF.COMPS:ANC:1,2010-12-01T09:24:00Z,28.1930,-82.7890,18.12,1111122 
COMPS,ioos:station:USF.COMPS:ANC:1,2010-12-01T09:30:00Z,28.1930,-82.7890,18.54,1111122 
COMPS,ioos:station:USF.COMPS:ANC:1,2010-12-01T09:36:00Z,28.1930,-82.7890,18.83,1111122 
COMPS,ioos:station:USF.COMPS:ANC:1,2010-12-01T09:42:00Z,28.1930,-82.7890,18.93,1111122 
COMPS,ioos:station:USF.COMPS:ANC:1,2010-12-01T09:48:00Z,28.1930,-82.7890,18.97,1111122 
COMPS,ioos:station:USF.COMPS:ANC:1,2010-12-01T09:54:00Z,28.1930,-82.7890,18.46,1111122 
COMPS,ioos:station:USF.COMPS:ANC:1,2010-12-01T10:00:00Z,28.1930,-82.7890,18.5,1111122 
COMPS,ioos:station:USF.COMPS:ANC:1,2010-12-01T10:06:00Z,28.1930,-82.7890,18.5,1111122 
COMPS,ioos:station:USF.COMPS:ANC:1,2010-12-01T10:12:00Z,28.1930,-82.7890,18.27,1111122 
COMPS,ioos:station:USF.COMPS:ANC:1,2010-12-01T10:18:00Z,28.1930,-82.7890,18.34,1111122 
COMPS,ioos:station:USF.COMPS:ANC:1,2010-12-01T10:24:00Z,28.1930,-82.7890,18.36,1111122 
COMPS,ioos:station:USF.COMPS:ANC:1,2010-12-01T10:30:00Z,28.1930,-82.7890,17.95,1111122 
COMPS,ioos:station:USF.COMPS:ANC:1,2010-12-01T10:36:00Z,28.1930,-82.7890,17.73,1111122 
COMPS,ioos:station:USF.COMPS:ANC:1,2010-12-01T10:42:00Z,28.1930,-82.7890,17.64,1111122 
COMPS,ioos:station:USF.COMPS:ANC:1,2010-12-01T10:48:00Z,28.1930,-82.7890,17.4,1111122 
COMPS,ioos:station:USF.COMPS:ANC:1,2010-12-01T10:54:00Z,28.1930,-82.7890,17.11,1111122 
COMPS,ioos:station:USF.COMPS:ANC:1,2010-12-01T11:00:00Z,28.1930,-82.7890,17.1,1111122 
COMPS,ioos:station:USF.COMPS:ANC:1,2010-12-01T11:06:00Z,28.1930,-82.7890,17.14,1111122 
COMPS,ioos:station:USF.COMPS:ANC:1,2010-12-01T11:12:00Z,28.1930,-82.7890,17.23,1111122 
COMPS,ioos:station:USF.COMPS:ANC:1,2010-12-01T11:18:00Z,28.1930,-82.7890,17.32,1111122 
COMPS,ioos:station:USF.COMPS:ANC:1,2010-12-01T11:24:00Z,28.1930,-82.7890,17.75,1111122 
COMPS,ioos:station:USF.COMPS:ANC:1,2010-12-01T11:30:00Z,28.1930,-82.7890,17.4,1111122 
COMPS,ioos:station:USF.COMPS:ANC:1,2010-12-01T11:36:00Z,28.1930,-82.7890,17.71,1111122 
COMPS,ioos:station:USF.COMPS:ANC:1,2010-12-01T11:42:00Z,28.1930,-82.7890,17.79,1111122 
COMPS,ioos:station:USF.COMPS:ANC:1,2010-12-01T11:48:00Z,28.1930,-82.7890,17.62,1111122 
COMPS,ioos:station:USF.COMPS:ANC:1,2010-12-01T11:54:00Z,28.1930,-82.7890,17.59,1111122 
COMPS,ioos:station:USF.COMPS:ANC:1,2010-12-01T12:00:00Z,28.1930,-82.7890,17.6,1111122 
COMPS,ioos:station:USF.COMPS:ANC:1,2010-12-01T14:00:00Z,28.1930,-82.7890,16.4,1111122 
COMPS,ioos:station:USF.COMPS:ANC:1,2010-12-01T14:06:00Z,28.1930,-82.7890,16.17,1111122 
COMPS,ioos:station:USF.COMPS:ANC:1,2010-12-01T14:12:00Z,28.1930,-82.7890,16.14,1111122 
COMPS,ioos:station:USF.COMPS:ANC:1,2010-12-01T14:18:00Z,28.1930,-82.7890,16.05,1111122 
COMPS,ioos:station:USF.COMPS:ANC:1,2010-12-01T14:24:00Z,28.1930,-82.7890,16.12,1111122 
COMPS,ioos:station:USF.COMPS:ANC:1,2010-12-01T14:30:00Z,28.1930,-82.7890,15.61,1111122 
COMPS,ioos:station:USF.COMPS:ANC:1,2010-12-01T14:36:00Z,28.1930,-82.7890,15.77,1111122 
COMPS,ioos:station:USF.COMPS:ANC:1,2010-12-01T14:42:00Z,28.1930,-82.7890,15.64,1111122 
COMPS,ioos:station:USF.COMPS:ANC:1,2010-12-01T14:48:00Z,28.1930,-82.7890,15.5,1111122 
COMPS,ioos:station:USF.COMPS:ANC:1,2010-12-01T14:54:00Z,28.1930,-82.7890,15.55,1111122 
COMPS,ioos:station:USF.COMPS:ANC:1,2010-12-01T15:00:00Z,28.1930,-82.7890,15.6,1111122 
COMPS,ioos:station:USF.COMPS:ANC:1,2010-12-01T15:06:00Z,28.1930,-82.7890,15.48,1111122 
COMPS,ioos:station:USF.COMPS:ANC:1,2010-12-01T15:12:00Z,28.1930,-82.7890,15.38,1111122 
COMPS,ioos:station:USF.COMPS:ANC:1,2010-12-01T15:18:00Z,28.1930,-82.7890,15.51,1111122 
COMPS,ioos:station:USF.COMPS:ANC:1,2010-12-01T15:24:00Z,28.1930,-82.7890,15.37,1111122 
COMPS,ioos:station:USF.COMPS:ANC:1,2010-12-01T15:30:00Z,28.1930,-82.7890,14.85,1111122 
COMPS,ioos:station:USF.COMPS:ANC:1,2010-12-01T15:36:00Z,28.1930,-82.7890,14.76,1111122 
COMPS,ioos:station:USF.COMPS:ANC:1,2010-12-01T15:42:00Z,28.1930,-82.7890,14.28,1111122 
COMPS,ioos:station:USF.COMPS:ANC:1,2010-12-01T15:48:00Z,28.1930,-82.7890,14.01,1111122 
COMPS,ioos:station:USF.COMPS:ANC:1,2010-12-01T15:54:00Z,28.1930,-82.7890,13.93,1111122 
COMPS,ioos:station:USF.COMPS:ANC:1,2010-12-01T16:00:00Z,28.1930,-82.7890,13.9,1111122 
COMPS,ioos:station:USF.COMPS:ANC:1,2010-12-01T16:06:00Z,28.1930,-82.7890,13.26,1111122 
COMPS,ioos:station:USF.COMPS:ANC:1,2010-12-01T16:12:00Z,28.1930,-82.7890,13.44,1111122 
COMPS,ioos:station:USF.COMPS:ANC:1,2010-12-01T16:18:00Z,28.1930,-82.7890,13.31,1111122 
COMPS,ioos:station:USF.COMPS:ANC:1,2010-12-01T16:24:00Z,28.1930,-82.7890,13.58,1111122 
COMPS,ioos:station:USF.COMPS:ANC:1,2010-12-01T16:30:00Z,28.1930,-82.7890,13.51,1111122 
COMPS,ioos:station:USF.COMPS:ANC:1,2010-12-01T16:36:00Z,28.1930,-82.7890,13.39,1111122 
COMPS,ioos:station:USF.COMPS:ANC:1,2010-12-01T16:42:00Z,28.1930,-82.7890,13.34,1111122 
COMPS,ioos:station:USF.COMPS:ANC:1,2010-12-01T16:48:00Z,28.1930,-82.7890,13.42,1111122 
COMPS,ioos:station:USF.COMPS:ANC:1,2010-12-01T16:54:00Z,28.1930,-82.7890,13.34,1111122 
COMPS,ioos:station:USF.COMPS:ANC:1,2010-12-01T17:00:00Z,28.1930,-82.7890,13.3,1111122 
COMPS,ioos:station:USF.COMPS:ANC:1,2010-12-01T17:06:00Z,28.1930,-82.7890,13.34,1111122 
COMPS,ioos:station:USF.COMPS:ANC:1,2010-12-01T17:12:00Z,28.1930,-82.7890,13.39,1111122 
COMPS,ioos:station:USF.COMPS:ANC:1,2010-12-01T17:18:00Z,28.1930,-82.7890,13.32,1111122 
COMPS,ioos:station:USF.COMPS:ANC:1,2010-12-01T17:24:00Z,28.1930,-82.7890,13.62,1111122 
COMPS,ioos:station:USF.COMPS:ANC:1,2010-12-01T17:30:00Z,28.1930,-82.7890,13.43,1111122 
COMPS,ioos:station:USF.COMPS:ANC:1,2010-12-01T17:36:00Z,28.1930,-82.7890,13.53,1111122 
COMPS,ioos:station:USF.COMPS:ANC:1,2010-12-01T17:42:00Z,28.1930,-82.7890,13.67,1111122 
COMPS,ioos:station:USF.COMPS:ANC:1,2010-12-01T17:48:00Z,28.1930,-82.7890,13.4,1111122 
COMPS,ioos:station:USF.COMPS:ANC:1,2010-12-01T17:54:00Z,28.1930,-82.7890,13.48,1111122 
COMPS,ioos:station:USF.COMPS:ANC:1,2010-12-01T18:00:00Z,28.1930,-82.7890,13.5,1111122 
COMPS,ioos:station:USF.COMPS:ANC:1,2010-12-01T18:06:00Z,28.1930,-82.7890,13.54,1111122 
COMPS,ioos:station:USF.COMPS:ANC:1,2010-12-01T18:12:00Z,28.1930,-82.7890,13.57,1111122 
COMPS,ioos:station:USF.COMPS:ANC:1,2010-12-01T18:18:00Z,28.1930,-82.7890,13.59,1111122 
COMPS,ioos:station:USF.COMPS:ANC:1,2010-12-01T18:24:00Z,28.1930,-82.7890,14.01,1111122 
COMPS,ioos:station:USF.COMPS:ANC:1,2010-12-01T18:30:00Z,28.1930,-82.7890,13.89,1111122 
COMPS,ioos:station:USF.COMPS:ANC:1,2010-12-01T18:36:00Z,28.1930,-82.7890,13.94,1111122 
COMPS,ioos:station:USF.COMPS:ANC:1,2010-12-01T18:42:00Z,28.1930,-82.7890,13.9,1111122 
COMPS,ioos:station:USF.COMPS:ANC:1,2010-12-01T18:48:00Z,28.1930,-82.7890,14.14,1111122 
COMPS,ioos:station:USF.COMPS:ANC:1,2010-12-01T18:54:00Z,28.1930,-82.7890,14.02,1111122 
COMPS,ioos:station:USF.COMPS:ANC:1,2010-12-01T19:00:00Z,28.1930,-82.7890,14.0,1111122 
COMPS,ioos:station:USF.COMPS:ANC:1,2010-12-01T19:06:00Z,28.1930,-82.7890,14.35,1111122 
COMPS,ioos:station:USF.COMPS:ANC:1,2010-12-01T19:12:00Z,28.1930,-82.7890,14.38,1111122 
COMPS,ioos:station:USF.COMPS:ANC:1,2010-12-01T19:18:00Z,28.1930,-82.7890,14.38,1111122 
COMPS,ioos:station:USF.COMPS:ANC:1,2010-12-01T19:24:00Z,28.1930,-82.7890,14.63,1111122 
COMPS,ioos:station:USF.COMPS:ANC:1,2010-12-01T19:30:00Z,28.1930,-82.7890,14.46,1111122 
COMPS,ioos:station:USF.COMPS:ANC:1,2010-12-01T19:36:00Z,28.1930,-82.7890,14.45,1111122 
COMPS,ioos:station:USF.COMPS:ANC:1,2010-12-01T19:42:00Z,28.1930,-82.7890,14.41,1111122 
COMPS,ioos:station:USF.COMPS:ANC:1,2010-12-01T19:48:00Z,28.1930,-82.7890,14.49,1111122 
COMPS,ioos:station:USF.COMPS:ANC:1,2010-12-01T19:54:00Z,28.1930,-82.7890,14.34,1111122 
COMPS,ioos:station:USF.COMPS:ANC:1,2010-12-01T20:00:00Z,28.1930,-82.7890,14.3,1111122 
COMPS,ioos:station:USF.COMPS:ANC:1,2010-12-01T20:06:00Z,28.1930,-82.7890,14.38,1111122 
COMPS,ioos:station:USF.COMPS:ANC:1,2010-12-01T20:12:00Z,28.1930,-82.7890,14.32,1111122 
COMPS,ioos:station:USF.COMPS:ANC:1,2010-12-01T20:18:00Z,28.1930,-82.7890,14.42,1111122 
COMPS,ioos:station:USF.COMPS:ANC:1,2010-12-01T20:24:00Z,28.1930,-82.7890,14.59,1111122 
COMPS,ioos:station:USF.COMPS:ANC:1,2010-12-01T20:30:00Z,28.1930,-82.7890,14.33,1111122 
COMPS,ioos:station:USF.COMPS:ANC:1,2010-12-01T20:36:00Z,28.1930,-82.7890,14.31,1111122 
COMPS,ioos:station:USF.COMPS:ANC:1,2010-12-01T20:42:00Z,28.1930,-82.7890,14.56,1111122 
COMPS,ioos:station:USF.COMPS:ANC:1,2010-12-01T20:48:00Z,28.1930,-82.7890,14.54,1111122 
COMPS,ioos:station:USF.COMPS:ANC:1,2010-12-01T20:54:00Z,28.1930,-82.7890,14.45,1111122 
COMPS,ioos:station:USF.COMPS:ANC:1,2010-12-01T21:00:00Z,28.1930,-82.7890,14.5,1111122 
COMPS,ioos:station:USF.COMPS:ANC:1,2010-12-01T21:06:00Z,28.1930,-82.7890,14.66,1111122 
COMPS,ioos:station:USF.COMPS:ANC:1,2010-12-01T21:12:00Z,28.1930,-82.7890,14.58,1111122 
COMPS,ioos:station:USF.COMPS:ANC:1,2010-12-01T21:18:00Z,28.1930,-82.7890,14.5,1111122 
COMPS,ioos:station:USF.COMPS:ANC:1,2010-12-01T21:24:00Z,28.1930,-82.7890,14.83,1111122 
COMPS,ioos:station:USF.COMPS:ANC:1,2010-12-01T21:30:00Z,28.1930,-82.7890,14.61,1111122 
COMPS,ioos:station:USF.COMPS:ANC:1,2010-12-01T21:36:00Z,28.1930,-82.7890,14.69,1111122 
COMPS,ioos:station:USF.COMPS:ANC:1,2010-12-01T21:42:00Z,28.1930,-82.7890,14.61,1111122 
COMPS,ioos:station:USF.COMPS:ANC:1,2010-12-01T21:48:00Z,28.1930,-82.7890,14.66,1111122 
COMPS,ioos:station:USF.COMPS:ANC:1,2010-12-01T21:54:00Z,28.1930,-82.7890,14.83,1111122 
COMPS,ioos:station:USF.COMPS:ANC:1,2010-12-01T22:00:00Z,28.1930,-82.7890,14.8,1111122 
COMPS,ioos:station:USF.COMPS:ANC:1,2010-12-01T22:06:00Z,28.1930,-82.7890,14.75,1111122 
COMPS,ioos:station:USF.COMPS:ANC:1,2010-12-01T22:12:00Z,28.1930,-82.7890,14.81,1111122 
COMPS,ioos:station:USF.COMPS:ANC:1,2010-12-01T22:18:00Z,28.1930,-82.7890,14.67,1111122 
COMPS,ioos:station:USF.COMPS:ANC:1,2010-12-01T22:24:00Z,28.1930,-82.7890,15.01,1111122 
COMPS,ioos:station:USF.COMPS:ANC:1,2010-12-01T22:30:00Z,28.1930,-82.7890,14.66,1111122 
COMPS,ioos:station:USF.COMPS:ANC:1,2010-12-01T22:36:00Z,28.1930,-82.7890,14.61,1111122 
COMPS,ioos:station:USF.COMPS:ANC:1,2010-12-01T22:42:00Z,28.1930,-82.7890,14.55,1111122 
COMPS,ioos:station:USF.COMPS:ANC:1,2010-12-01T22:48:00Z,28.1930,-82.7890,14.73,1111122 
COMPS,ioos:station:USF.COMPS:ANC:1,2010-12-01T22:54:00Z,28.1930,-82.7890,14.66,1111122 
COMPS,ioos:station:USF.COMPS:ANC:1,2010-12-01T23:00:00Z,28.1930,-82.7890,14.7,1111122 
COMPS,ioos:station:USF.COMPS:ANC:1,2010-12-01T23:06:00Z,28.1930,-82.7890,14.67,1111122 
COMPS,ioos:station:USF.COMPS:ANC:1,2010-12-01T23:12:00Z,28.1930,-82.7890,14.63,1111122 
COMPS,ioos:station:USF.COMPS:ANC:1,2010-12-01T23:18:00Z,28.1930,-82.7890,14.81,1111122 
COMPS,ioos:station:USF.COMPS:ANC:1,2010-12-01T23:24:00Z,28.1930,-82.7890,14.89,1111122 
COMPS,ioos:station:USF.COMPS:ANC:1,2010-12-01T23:30:00Z,28.1930,-82.7890,14.72,1111122 
COMPS,ioos:station:USF.COMPS:ANC:1,2010-12-01T23:36:00Z,28.1930,-82.7890,14.71,1111122 
COMPS,ioos:station:USF.COMPS:ANC:1,2010-12-01T23:42:00Z,28.1930,-82.7890,14.74,1111122 
COMPS,ioos:station:USF.COMPS:ANC:1,2010-12-01T23:48:00Z,28.1930,-82.7890,14.68,1111122 
COMPS,ioos:station:USF.COMPS:ANC:1,2010-12-01T23:54:00Z,28.1930,-82.7890,14.81,1111122 
COMPS,ioos:station:USF.COMPS:ANC:1,2010-12-02T00:00:00Z,28.1930,-82.7890,14.8,1111122 
COMPS,ioos:station:USF.COMPS:ANC:1,2010-12-02T00:06:00Z,28.1930,-82.7890,14.83,1111122 
COMPS,ioos:station:USF.COMPS:ANC:1,2010-12-02T00:12:00Z,28.1930,-82.7890,14.81,1111122 
COMPS,ioos:station:USF.COMPS:ANC:1,2010-12-02T00:18:00Z,28.1930,-82.7890,14.77,1111122 
COMPS,ioos:station:USF.COMPS:ANC:1,2010-12-02T00:24:00Z,28.1930,-82.7890,15.03,1111122 
COMPS,ioos:station:USF.COMPS:ANC:1,2010-12-02T00:30:00Z,28.1930,-82.7890,14.87,1111122 
COMPS,ioos:station:USF.COMPS:ANC:1,2010-12-02T00:36:00Z,28.1930,-82.7890,14.73,1111122 
COMPS,ioos:station:USF.COMPS:ANC:1,2010-12-02T00:42:00Z,28.1930,-82.7890,14.73,1111122 
COMPS,ioos:station:USF.COMPS:ANC:1,2010-12-02T00:48:00Z,28.1930,-82.7890,14.75,1111122 
COMPS,ioos:station:USF.COMPS:ANC:1,2010-12-02T00:54:00Z,28.1930,-82.7890,14.79,1111122 
COMPS,ioos:station:USF.COMPS:ANC:1,2010-12-02T01:00:00Z,28.1930,-82.7890,14.8,1111122 
COMPS,ioos:station:USF.COMPS:ANC:1,2010-12-02T01:06:00Z,28.1930,-82.7890,14.75,1111122 
COMPS,ioos:station:USF.COMPS:ANC:1,2010-12-02T01:12:00Z,28.1930,-82.7890,14.74,1111122 
COMPS,ioos:station:USF.COMPS:ANC:1,2010-12-02T01:18:00Z,28.1930,-82.7890,14.78,1111122 
COMPS,ioos:station:USF.COMPS:ANC:1,2010-12-02T01:24:00Z,28.1930,-82.7890,15.03,1111122 
COMPS,ioos:station:USF.COMPS:ANC:1,2010-12-02T01:30:00Z,28.1930,-82.7890,14.79,1111122 
COMPS,ioos:station:USF.COMPS:ANC:1,2010-12-02T01:36:00Z,28.1930,-82.7890,14.87,1111122 
COMPS,ioos:station:USF.COMPS:ANC:1,2010-12-02T01:42:00Z,28.1930,-82.7890,14.94,1111122 
COMPS,ioos:station:USF.COMPS:ANC:1,2010-12-02T01:48:00Z,28.1930,-82.7890,14.82,1111122 
COMPS,ioos:station:USF.COMPS:ANC:1,2010-12-02T01:54:00Z,28.1930,-82.7890,14.86,1111122 
COMPS,ioos:station:USF.COMPS:ANC:1,2010-12-02T02:00:00Z,28.1930,-82.7890,14.9,1111122 
COMPS,ioos:station:USF.COMPS:ANC:1,2010-12-02T02:06:00Z,28.1930,-82.7890,14.83,1111122 
COMPS,ioos:station:USF.COMPS:ANC:1,2010-12-02T02:12:00Z,28.1930,-82.7890,14.88,1111122 
COMPS,ioos:station:USF.COMPS:ANC:1,2010-12-02T02:18:00Z,28.1930,-82.7890,14.83,1111122 
COMPS,ioos:station:USF.COMPS:ANC:1,2010-12-02T02:24:00Z,28.1930,-82.7890,14.17,1111122 
COMPS,ioos:station:USF.COMPS:ANC:1,2010-12-02T02:30:00Z,28.1930,-82.7890,13.2,1111122 
COMPS,ioos:station:USF.COMPS:ANC:1,2010-12-02T02:36:00Z,28.1930,-82.7890,12.7,1111122 
COMPS,ioos:station:USF.COMPS:ANC:1,2010-12-02T02:42:00Z,28.1930,-82.7890,12.14,1111122 
COMPS,ioos:station:USF.COMPS:ANC:1,2010-12-02T02:48:00Z,28.1930,-82.7890,12.02,1111122 
COMPS,ioos:station:USF.COMPS:ANC:1,2010-12-02T02:54:00Z,28.1930,-82.7890,11.82,1111122 
COMPS,ioos:station:USF.COMPS:ANC:1,2010-12-02T03:00:00Z,28.1930,-82.7890,11.8,1111122 
COMPS,ioos:station:USF.COMPS:ANC:1,2010-12-02T03:06:00Z,28.1930,-82.7890,11.95,1111122 
COMPS,ioos:station:USF.COMPS:ANC:1,2010-12-02T03:12:00Z,28.1930,-82.7890,11.88,1111122 
COMPS,ioos:station:USF.COMPS:ANC:1,2010-12-02T03:18:00Z,28.1930,-82.7890,11.41,1111122 
COMPS,ioos:station:USF.COMPS:ANC:1,2010-12-02T03:24:00Z,28.1930,-82.7890,11.59,1111122 
COMPS,ioos:station:USF.COMPS:ANC:1,2010-12-02T03:30:00Z,28.1930,-82.7890,11.35,1111122 
COMPS,ioos:station:USF.COMPS:ANC:1,2010-12-02T03:36:00Z,28.1930,-82.7890,11.48,1111122 
COMPS,ioos:station:USF.COMPS:ANC:1,2010-12-02T03:42:00Z,28.1930,-82.7890,11.56,1111122 
COMPS,ioos:station:USF.COMPS:ANC:1,2010-12-02T03:48:00Z,28.1930,-82.7890,11.12,1111122 
COMPS,ioos:station:USF.COMPS:ANC:1,2010-12-02T03:54:00Z,28.1930,-82.7890,10.81,1111122 
COMPS,ioos:station:USF.COMPS:ANC:1,2010-12-02T04:00:00Z,28.1930,-82.7890,10.8,1111122 
COMPS,ioos:station:USF.COMPS:ANC:1,2010-12-02T04:06:00Z,28.1930,-82.7890,10.24,1111122 
COMPS,ioos:station:USF.COMPS:ANC:1,2010-12-02T04:12:00Z,28.1930,-82.7890,10.03,1111122 
COMPS,ioos:station:USF.COMPS:ANC:1,2010-12-02T04:18:00Z,28.1930,-82.7890,9.94,1111122 
COMPS,ioos:station:USF.COMPS:ANC:1,2010-12-02T04:24:00Z,28.1930,-82.7890,10.03,1111122 
COMPS,ioos:station:USF.COMPS:ANC:1,2010-12-02T04:30:00Z,28.1930,-82.7890,9.78,1111122 
COMPS,ioos:station:USF.COMPS:ANC:1,2010-12-02T04:36:00Z,28.1930,-82.7890,9.69,1111122 
COMPS,ioos:station:USF.COMPS:ANC:1,2010-12-02T04:42:00Z,28.1930,-82.7890,9.61,1111122 
COMPS,ioos:station:USF.COMPS:ANC:1,2010-12-02T04:48:00Z,28.1930,-82.7890,9.47,1111122 
COMPS,ioos:station:USF.COMPS:ANC:1,2010-12-02T04:54:00Z,28.1930,-82.7890,9.52,1111122 
COMPS,ioos:station:USF.COMPS:ANC:1,2010-12-02T05:00:00Z,28.1930,-82.7890,9.5,1111122 